Location: Yecla
(38.6122°N, 1.1101°W)
Time: 23:35:25
(UTC+02:00)

ISS - Pass Details

Date: 23 May 2019
Orbit: 408 x 419 km, 51.6° (Epoch: 21 June)

Event Time Altitude Azimuth Distance (km) Brightness Sun altitude
Rises 21:41:56 0° 259° (W) 2,337 0.8 -5.2°
Reaches altitude 10° 21:44:14 10° 272° (W) 1,480 0.1 -5.6°
Maximum altitude 21:47:05 26° 332° (NNW) 862 -1.3 -6.1°
Drops below altitude 10° 21:49:57 10° 31° (NNE) 1,492 -0.9 -6.5°
Sets 21:52:17 0° 44° (NE) 2,360 -0.1 -6.9°
